Theta_e
291 291 291 290 290 290 290 290 290 290 290 289 289 288 288 288 288 288 288 288 288 288 288 289 289 289 289 289 289 289 289 289 289 289 291 291 291 291 291 291 291 291 291 291 292 292 292 293 293 293 293 293 293 293 293 293 293 294 294 294 294 294 294 294 294 294 294 294 295 295 295 294 294 294 294 294 294 294 294 295 295 295 295 296 296 296
290 290 290 290 290 290 290 290 290 290 289 289 288 288 288 288 288 288 288 288 288 289 289 289 289 289 289 289 289 289 289 289 289 289 291 291 291 290 290 290 290 290 291 291 292 292 292 292 292 292 292 292 292 292 293 293 293 293 293 293 293 293 293 293 293 294 294 294 294 294 294 294 293 293 293 293 294 294 294 294 294 295 295 295 296 296
290 290 290 290 290 290 290 290 290 289 289 288 288 288 288 288 288 288 288 289 289 289 289 289 289 289 289 289 289 289 289 289 289 289 290 290 290 289 289 289 289 290 291 291 292 292 292 292 292 292 292 292 292 292 292 292 292 292 292 292 292 292 292 292 292 293 293 293 293 293 293 293 293 293 293 293 293 293 293 294 294 294 294 295 295 295
290 290 290 290 290 290 290 289 289 289 289 288 288 288 288 288 288 289 289 289 289 289 289 289 289 289 289 289 289 289 289 289 289 289 289 288 288 288 288 288 289 289 291 291 292 292 292 292 292 292 292 292 292 292 291 291 291 291 291 291 291 291 291 292 292 292 292 292 292 292 292 292 292 292 292 292 293 293 293 293 293 294 294 294 294 295
290 290 290 290 290 289 289 289 289 289 289 288 288 288 288 288 288 289 289 289 289 289 289 289 289 289 289 289 289 289 289 289 289 289 288 288 287 287 287 288 289 289 290 291 291 292 292 292 292 292 292 291 291 291 291 291 291 291 291 291 291 291 291 291 291 291 291 291 291 292 292 292 292 292 292 292 292 292 292 293 293 293 293 294 294 294
290 290 290 290 289 289 289 289 289 289 289 288 288 288 288 288 289 289 289 289 289 289 289 289 289 289 289 289 289 289 289 289 289 288 288 287 287 287 287 288 289 289 290 291 291 291 291 291 291 291 291 291 291 291 290 290 290 290 290 290 290 290 290 290 290 290 290 291 291 291 291 291 291 291 292 292 292 292 292 292 293 293 293 293 294 294
290 290 290 290 289 289 289 289 289 289 288 288 288 288 288 289 289 289 289 289 289 289 289 289 289 289 289 289 289 289 289 289 289 288 288 287 287 287 288 288 288 289 289 290 291 291 291 290 290 290 290 290 289 290 290 290 290 290 290 289 289 289 289 290 290 290 290 290 291 291 291 291 291 291 292 292 292 292 292 292 292 293 293 293 293 293
290 290 290 290 289 289 289 289 289 289 288 288 288 288 289 289 289 289 289 289 289 289 289 289 289 289 289 289 289 289 289 289 289 288 288 287 287 287 287 288 288 288 289 289 289 289 289 289 289 288 288 288 288 288 288 289 289 288 288 288 288 288 288 289 289 290 290 290 291 291 291 291 291 291 291 291 292 292 292 292 292 292 292 292 293 293
290 290 290 290 289 289 289 289 289 288 288 288 287 288 288 289 289 289 289 289 289 289 289 289 289 289 289 289 289 289 289 289 289 288 288 287 287 287 287 288 288 288 288 288 288 288 288 288 288 287 287 287 287 287 287 287 287 286 286 286 286 287 287 288 289 290 290 290 291 291 291 291 291 291 291 291 291 291 291 291 292 292 292 292 292 292
290 289 289 289 289 289 289 288 288 288 288 288 288 288 288 288 288 289 289 289 289 289 289 289 289 289 289 289 289 289 289 289 289 288 287 287 287 287 287 287 287 287 287 287 287 287 287 287 287 287 286 286 286 286 286 286 285 285 285 285 286 286 287 288 289 290 290 290 290 291 291 291 291 291 291 291 291 291 291 291 291 291 292 292 292 292
289 289 289 289 289 288 288 288 288 288 288 287 288 288 288 288 288 288 288 289 289 289 289 289 289 289 289 289 289 289 289 289 289 288 287 287 287 286 287 287 287 287 287 287 287 287 287 287 287 287 286 286 286 286 285 285 285 285 285 285 286 287 288 289 289 290 290 290 290 290 290 290 291 291 291 291 291 291 291 291 291 291 291 291 292 292
289 289 288 288 288 288 288 287 287 287 287 287 287 288 288 288 288 288 288 288 288 289 289 289 289 289 289 289 289 288 288 288 288 288 287 287 287 286 286 286 286 287 287 287 287 287 287 287 287 286 286 286 286 285 285 285 285 285 285 286 287 287 288 289 289 289 289 289 290 290 290 290 290 290 290 291 291 291 291 291 291 291 291 291 291 291
288 288 288 288 288 288 287 287 287 287 287 287 287 287 288 288 288 288 288 288 288 288 289 289 289 289 289 289 288 288 288 288 288 287 287 287 287 286 286 286 286 287 287 287 287 287 287 287 287 286 286 286 286 285 285 285 285 285 286 286 287 288 288 289 289 289 289 289 289 289 290 290 290 290 290 290 290 290 291 291 291 291 291 291 291 291
288 288 288 287 287 287 287 287 287 287 287 287 287 287 287 288 288 288 288 288 288 288 288 289 289 289 288 288 288 288 288 287 287 287 287 286 286 286 286 286 286 286 286 287 287 287 287 287 287 286 286 286 286 286 285 285 285 286 286 287 288 288 288 288 289 289 289 289 289 289 289 289 290 290 290 290 290 290 290 290 290 290 290 291 291 291
288 287 287 287 287 287 287 287 286 286 286 287 287 287 287 287 288 288 288 288 288 288 288 288 288 288 288 288 288 288 287 287 287 287 286 286 286 286 286 286 286 286 286 286 287 287 287 287 286 286 286 286 286 285 285 285 286 286 287 287 288 288 288 288 288 288 289 289 289 289 289 289 289 289 289 289 290 290 290 290 290 290 290 290 290 291
287 287 287 287 287 287 287 287 286 286 286 287 287 287 287 287 287 288 288 288 288 288 288 288 288 288 288 288 288 287 287 287 287 287 286 286 286 286 286 286 286 286 286 286 287 287 287 287 286 286 286 286 286 285 285 286 286 286 286 287 287 287 288 288 288 288 288 289 289 289 289 289 289 289 289 289 289 290 290 290 290 290 290 290 290 290
287 287 287 287 287 287 287 286 286 286 286 286 287 287 287 287 287 288 288 288 288 288 288 288 288 287 287 288 288 288 287 287 287 287 286 286 286 286 286 286 286 286 286 286 287 287 287 287 286 286 286 285 285 285 285 285 286 286 286 287 287 287 288 288 288 288 288 288 289 289 289 289 289 289 289 289 289 289 290 290 290 290 290 290 291 291
287 287 287 287 287 287 287 286 286 286 286 286 287 287 287 287 288 288 288 288 288 288 288 288 288 287 287 287 288 288 287 287 287 286 286 286 286 286 286 286 286 286 286 286 287 287 287 286 286 286 285 285 285 285 285 285 285 286 286 287 287 287 287 288 288 288 288 288 288 288 288 289 289 289 289 289 289 289 289 289 289 289 289 290 290 290
288 287 287 287 287 287 287 287 286 286 286 287 287 287 287 288 288 288 288 288 289 288 288 288 288 288 288 287 287 287 287 287 287 286 286 286 286 286 286 286 286 286 286 286 287 287 287 286 286 285 285 285 285 285 285 285 285 286 286 286 287 287 287 287 287 288 288 288 288 288 288 288 288 288 289 289 289 289 289 288 288 288 288 289 289 289
288 288 287 287 287 287 287 286 286 287 287 287 287 287 287 288 288 288 288 288 288 288 288 288 288 288 288 287 287 287 287 287 287 286 286 286 286 286 286 286 286 286 286 287 287 287 286 286 286 285 285 285 285 285 285 285 285 285 285 286 286 287 287 287 287 287 287 288 288 288 288 288 288 288 288 288 288 288 288 288 288 288 288 288 288 288
288 288 288 288 287 287 287 287 287 287 287 287 287 288 288 288 288 288 288 288 288 288 288 288 288 288 288 288 288 288 287 287 287 286 286 286 286 286 286 286 286 286 286 286 286 286 286 286 285 285 285 285 285 285 285 285 285 285 285 285 286 286 286 287 287 287 287 287 288 288 288 288 288 288 287 287 287 287 287 287 287 287 288 288 288 289
289 288 288 288 288 288 287 287 287 288 288 288 288 288 288 288 288 289 289 289 289 289 289 289 288 288 288 288 288 288 288 288 287 286 286 286 286 286 286 286 286 286 286 286 286 286 286 285 285 285 285 285 284 284 285 285 285 285 285 285 285 286 286 286 287 287 287 287 287 287 287 287 287 287 287 286 287 287 287 287 287 287 288 288 288 289
290 289 289 289 289 288 288 288 288 288 288 288 288 289 289 289 289 289 289 289 289 289 289 289 289 289 289 289 289 289 288 288 287 286 286 286 286 286 286 286 286 286 286 286 286 286 285 285 285 285 285 284 284 284 284 284 284 285 285 285 285 285 286 286 286 286 286 286 286 286 286 286 286 286 286 286 286 287 287 287 287 287 288 288 288 289
290 290 290 289 289 289 289 289 289 289 289 289 289 289 290 290 290 290 290 290 290 290 290 290 290 289 289 289 288 288 288 287 287 286 286 286 286 286 286 286 286 286 286 286 286 285 285 285 285 285 284 284 284 284 284 284 284 284 284 284 285 285 286 286 286 286 286 286 285 285 285 285 285 286 286 286 286 286 287 287 287 287 287 288 288 288
290 290 290 290 290 290 290 290 290 290 290 290 290 290 291 291 291 291 291 291 291 290 290 290 289 289 289 288 288 288 287 287 287 286 286 286 286 286 286 286 286 286 286 285 285 285 285 285 284 284 284 284 284 284 284 284 284 284 284 284 284 285 285 285 285 285 285 284 284 285 285 285 285 285 285 286 286 286 286 286 287 287 287 287 287 287
290 290 290 290 291 291 291 291 291 291 291 291 291 291 291 291 291 291 291 290 290 290 290 289 289 289 289 289 288 288 288 287 287 287 286 286 286 286 286 286 286 286 286 285 285 285 284 284 284 284 284 284 284 284 284 283 283 283 283 283 284 284 284 284 284 284 284 284 284 284 284 284 285 285 285 285 285 286 286 286 286 286 286 286 286 287
289 290 290 290 290 291 291 291 291 291 291 291 291 291 291 291 291 291 291 291 290 290 289 289 289 289 289 289 289 288 288 288 287 287 287 286 286 286 286 286 286 286 285 285 285 284 284 284 284 284 284 284 284 284 283 283 283 283 283 283 283 283 283 283 283 283 283 283 283 284 284 284 284 284 284 285 285 285 285 285 285 285 286 286 286 286
288 289 289 289 289 290 290 290 290 290 291 291 291 291 291 291 291 291 291 291 291 290 290 289 289 289 289 289 289 289 288 288 288 287 287 287 286 286 286 286 286 285 285 285 284 284 284 284 284 284 284 284 284 283 283 283 283 283 283 283 283 282 282 282 282 282 282 283 283 283 284 284 284 284 284 284 284 284 284 284 285 285 285 285 285 285
288 288 288 288 288 289 289 289 289 289 289 289 290 290 290 290 291 291 291 291 290 290 289 289 289 289 289 289 289 289 288 288 288 288 287 287 286 286 286 286 285 285 285 284 284 284 284 284 284 284 284 284 283 283 283 283 283 283 283 282 282 282 281 281 281 281 282 282 283 283 283 283 283 283 283 283 283 283 284 284 284 284 284 284 284 284
287 287 287 288 288 288 288 288 288 288 288 288 288 289 289 289 290 290 290 290 289 289 289 289 289 289 289 288 288 288 288 288 288 287 287 287 286 286 286 285 285 285 285 284 284 284 284 284 284 284 284 283 283 283 283 282 282 282 282 282 282 281 281 281 281 281 281 282 282 282 282 282 282 282 282 282 283 283 283 283 284 284 284 284 284 284
287 287 287 287 287 287 287 287 287 287 287 287 287 288 288 288 288 288 288 288 288 288 288 288 288 288 288 287 287 287 287 287 287 287 287 286 286 286 286 285 285 285 285 284 284 284 284 284 284 283 283 283 283 282 282 282 282 281 281 281 281 281 281 281 281 281 281 281 281 281 281 281 281 281 281 282 282 282 283 283 283 284 284 284 284 284
288 287 287 288 288 288 288 288 287 288 287 287 287 287 287 287 287 287 287 287 287 287 287 287 287 287 287 287 287 287 287 287 287 286 286 286 286 286 286 286 285 285 285 285 284 284 283 283 283 283 283 282 282 282 282 282 281 281 281 281 281 280 280 280 280 280 280 280 280 280 280 280 281 281 281 281 281 282 282 282 283 283 284 284 284 284
288 288 288 288 288 288 288 288 288 288 288 288 288 288 288 288 287 287 287 287 287 287 287 287 286 286 286 286 286 286 286 286 286 286 286 286 286 286 286 286 285 285 285 285 284 284 283 283 283 283 282 282 282 282 282 282 281 281 281 281 280 280 280 280 280 280 280 280 280 280 280 280 280 280 280 280 281 281 281 282 282 283 283 284 284 284
288 288 288 288 288 288 288 288 288 288 288 288 288 288 288 288 288 288 288 288 287 287 287 287 286 286 286 286 286 286 286 286 286 286 286 286 286 286 286 286 285 285 285 285 284 284 283 283 283 283 282 282 282 282 282 281 281 281 281 280 280 280 280 280 280 280 279 279 280 280 280 280 280 280 280 280 280 281 281 282 282 283 283 283 283 283
289 289 288 288 288 288 288 288 288 288 288 288 288 288 288 288 288 288 288 288 288 288 287 287 287 287 286 286 286 286 286 286 286 286 286 286 286 286 286 285 285 285 285 284 284 284 284 283 283 283 283 282 282 282 282 281 281 281 280 280 280 280 280 279 279 279 279 279 279 279 280 280 280 280 280 280 280 281 281 282 282 282 282 282 283 283
289 289 289 289 289 288 288 288 288 288 288 288 288 288 288 288 288 288 288 288 288 288 287 287 287 287 287 286 286 286 286 286 287 287 286 286 286 286 285 285 285 285 285 284 284 284 284 283 283 283 283 282 282 282 281 281 281 281 280 280 280 279 279 279 279 279 279 279 279 279 279 279 279 279 280 280 280 280 281 281 281 281 281 282 282 282
289 289 289 289 289 289 289 289 289 289 288 288 288 288 288 288 288 288 288 288 288 288 287 287 287 287 287 287 287 287 287 287 287 287 287 286 286 286 285 285 285 285 285 284 284 284 283 283 283 283 282 282 282 281 281 281 281 280 280 280 279 279 279 279 279 279 279 279 279 279 279 279 279 279 279 280 280 280 280 280 280 280 281 281 281 282
290 290 289 289 289 289 289 289 289 289 289 289 289 289 288 288 288 288 288 288 288 288 287 287 287 287 287 287 287 287 287 287 287 287 287 286 286 286 285 285 285 285 285 284 284 283 283 283 283 282 282 282 281 281 281 281 280 280 279 279 279 279 279 279 279 279 279 279 279 279 279 279 279 279 279 279 280 280 280 280 280 280 280 280 280 281
290 290 290 290 290 290 290 289 289 289 289 289 289 289 289 289 288 288 288 288 288 288 288 288 287 287 287 287 287 287 287 287 287 287 287 286 286 286 286 285 285 285 284 284 283 283 282 282 282 282 282 282 281 281 281 280 280 279 279 279 279 279 279 279 279 279 279 279 279 279 279 279 279 279 279 279 279 279 279 280 280 280 280 280 280 280
290 290 290 290 290 290 290 290 290 289 289 289 289 289 288 288 288 288 288 288 288 288 288 288 288 288 288 288 287 287 287 287 287 287 287 287 286 286 286 285 285 284 284 284 283 283 282 282 282 282 281 281 281 280 280 280 280 279 279 279 279 279 279 279 279 279 279 279 279 279 279 279 279 279 279 279 280 280 280 279 279 280 280 280 280 280
290 290 289 289 289 289 289 289 289 289 289 288 288 288 288 288 288 288 288 288 288 288 287 287 287 287 288 288 288 288 288 288 287 287 287 287 286 286 286 285 285 284 284 283 283 282 282 281 281 281 281 281 280 280 280 280 279 279 279 279 279 279 279 279 279 279 280 279 279 279 279 279 279 280 279 279 279 279 279 279 280 280 280 280 280 280
290 289 289 289 289 289 289 289 289 288 288 288 288 288 288 288 288 288 288 288 287 287 287 287 287 287 287 287 287 287 287 287 287 287 287 287 287 286 286 285 284 284 283 283 282 282 282 281 281 280 280 280 280 280 279 279 279 279 279 279 279 279 279 279 279 280 280 280 280 280 280 279 279 279 279 279 279 279 279 280 280 280 280 280 280 281
290 290 290 289 289 289 289 289 289 288 288 288 288 288 288 288 288 288 288 288 287 287 287 287 287 286 286 286 286 286 287 287 287 287 287 286 286 286 285 285 284 284 283 283 282 282 281 281 280 280 280 279 279 279 279 279 279 279 279 279 279 279 279 280 280 280 280 280 280 279 280 280 279 279 279 279 279 279 280 280 280 280 280 281 281 281
290 290 290 290 290 289 289 289 289 288 288 288 288 288 288 288 288 288 288 288 287 287 287 287 287 286 286 285 285 286 286 286 286 286 286 286 286 285 285 285 284 284 283 283 282 281 281 280 280 279 279 279 279 279 279 279 279 279 279 279 279 279 280 280 280 280 280 279 279 280 280 280 279 279 279 279 280 280 280 280 280 281 281 281 281 281
290 290 290 290 289 289 289 289 288 288 288 288 288 288 288 288 288 288 288 287 287 287 287 287 286 286 285 285 285 285 285 285 285 285 285 285 285 285 284 284 284 283 283 282 281 281 280 280 279 279 279 279 278 278 279 279 279 279 279 279 279 279 279 279 279 279 280 279 279 279 280 280 280 280 280 280 280 280 280 280 281 281 281 281 281 281
288 288 289 289 288 288 288 288 288 288 288 288 288 288 288 288 288 287 287 287 287 287 287 286 286 285 285 285 285 285 284 284 284 284 284 284 284 284 283 283 283 282 282 281 281 280 280 279 279 279 278 278 278 278 279 279 279 279 279 279 279 279 279 279 279 279 279 279 280 280 280 280 280 280 280 280 280 280 280 280 281 281 280 280 280 280
287 287 287 287 288 288 288 288 288 288 288 288 288 288 288 288 287 287 287 287 287 286 286 286 285 285 284 284 284 284 284 284 284 283 283 283 283 283 283 282 282 281 281 280 280 280 279 279 279 278 278 278 278 279 279 279 279 279 279 279 279 279 279 279 279 280 280 280 280 280 280 280 280 280 280 280 280 280 280 280 280 280 280 280 280 280
287 287 287 287 287 287 288 288 288 288 288 288 288 287 287 287 287 287 286 286 286 285 285 285 285 284 284 284 284 284 284 283 283 283 283 283 283 282 282 282 281 281 280 280 280 279 279 279 278 278 278 278 278 278 279 279 279 279 279 279 279 279 279 279 279 280 280 280 280 280 280 280 280 280 280 280 280 280 280 280 280 280 280 280 280 280
287 287 287 287 287 287 287 287 287 287 287 286 286 286 286 286 286 286 285 285 285 285 285 284 284 284 284 284 284 283 283 283 283 283 283 282 282 282 281 281 281 280 280 280 279 279 278 278 278 278 278 278 278 278 279 279 279 279 279 279 279 279 279 279 280 280 280 280 280 280 280 280 280 280 280 280 280 280 279 279 279 279 279 279 280 280
287 287 287 287 287 287 287 287 287 286 286 286 286 286 286 285 285 285 285 285 285 285 284 284 284 284 284 284 284 283 283 283 283 282 282 282 282 281 281 280 280 280 279 279 279 279 278 278 278 278 278 278 279 279 279 279 279 279 279 279 279 279 280 280 279 279 279 279 279 279 279 280 280 280 280 279 279 279 279 279 279 279 279 280 280 280
287 287 287 287 287 288 288 287 287 286 286 286 285 285 285 285 285 285 285 285 285 285 284 284 284 284 284 284 284 283 283 283 283 282 282 282 282 281 281 280 280 279 279 279 279 279 278 278 278 278 278 279 279 279 279 279 279 279 279 279 280 279 279 279 279 279 279 279 279 279 280 280 279 279 279 279 279 279 279 279 279 279 279 279 280 280
Wind_Speed
10 11 12 13 13 14 14 16 16 16 17 17 17 17 17 16 15 15 14 13 13 12 12 11 10 10 9 9 8 7 7 8 9 10 11 13 14 15 15 15 15 14 14 13 12 12 12 12 12 12 13 13 13 13 14 14 14 15 15 15 15 16 16 16 16 17 17 17 17 17 17 17 17 17 17 18 18 18 18 18 18 19 19 19 19 19
11 12 13 14 14 14 14 16 16 15 16 16 17 16 16 15 14 12 11 10 10 10 10 10 10 9 9 8 8 7 8 8 9 11 12 13 15 16 16 15 15 14 13 12 12 11 11 11 12 12 12 13 13 13 14 14 15 15 15 16 16 16 16 16 17 17 17 17 17 17 17 17 17 17 17 18 18 18 18 18 18 18 18 18 19 19
11 12 13 14 14 14 14 15 15 15 15 16 16 16 15 14 13 11 9 8 8 8 9 9 9 9 9 9 8 8 8 9 10 12 13 14 16 16 16 15 14 12 12 11 11 11 11 11 11 12 12 13 13 14 14 15 15 16 16 16 16 16 16 16 16 17 17 17 17 17 17 17 17 17 17 17 17 18 18 18 18 18 18 18 18 18
12 12 13 14 14 14 15 15 15 15 15 16 16 15 14 13 12 10 9 8 8 8 8 8 8 9 9 9 8 9 9 10 11 13 14 16 17 17 16 14 12 11 11 11 11 11 11 11 12 12 12 13 14 14 15 15 16 16 16 16 16 16 16 16 16 16 16 16 16 16 16 17 17 17 17 17 17 17 17 17 17 17 17 18 18 18
13 12 12 13 13 13 14 15 15 15 16 16 15 14 12 11 11 10 9 9 9 8 8 8 8 8 9 9 9 9 10 11 12 14 16 17 17 16 14 12 11 10 10 10 11 11 11 12 12 13 14 14 15 15 16 16 16 16 16 16 16 16 16 16 16 16 16 16 16 16 16 16 16 16 16 16 16 17 17 17 17 17 17 17 18 18
12 12 12 13 12 13 14 15 16 16 17 17 15 13 11 10 10 9 9 9 9 9 8 7 7 8 8 9 9 10 11 12 14 15 17 17 16 14 12 11 10 10 10 10 11 11 12 13 13 14 15 16 16 16 16 16 16 16 16 16 16 16 16 16 16 16 16 16 16 16 16 16 16 16 16 16 16 16 16 17 17 17 17 18 18 19
14 13 13 13 14 14 15 16 17 17 17 17 16 13 10 9 9 9 9 9 9 9 8 8 8 8 8 9 10 11 12 14 15 16 17 16 14 13 11 10 10 10 10 11 11 12 13 14 15 16 16 17 17 17 16 16 16 16 15 15 15 15 15 15 15 15 16 16 16 16 16 16 16 16 16 16 16 16 17 17 17 18 18 18 19 19
16 16 16 15 15 16 16 17 18 18 17 16 15 14 12 10 9 8 8 8 9 9 9 9 9 8 9 10 11 12 14 15 17 17 17 15 14 12 11 11 11 11 11 12 12 13 14 16 17 17 17 17 16 16 15 15 15 15 15 15 15 15 15 15 15 15 15 16 16 16 16 16 16 16 16 16 17 17 17 17 18 18 19 19 20 20
18 18 18 18 17 17 17 18 19 18 16 15 14 13 12 12 11 10 9 9 9 9 10 10 10 10 10 11 12 14 15 17 18 18 17 15 13 12 12 12 12 13 13 14 15 16 17 17 18 18 17 16 15 14 14 14 14 14 14 14 14 14 14 15 15 15 16 16 16 16 16 17 17 17 17 17 17 18 18 18 19 19 19 20 20 20
20 20 19 20 20 19 18 19 19 18 15 14 12 11 11 12 13 13 13 12 10 10 11 11 12 12 12 13 14 16 17 18 19 18 16 14 13 12 13 13 14 14 15 16 17 18 18 18 17 16 15 14 13 13 14 14 14 14 14 13 13 13 14 15 15 16 16 17 17 17 17 17 18 18 18 18 18 18 19 19 19 20 20 20 21 21
19 19 18 18 18 18 18 17 17 17 15 13 12 11 10 10 11 12 14 14 13 12 11 12 13 13 13 15 16 18 19 20 19 18 16 14 13 13 13 14 15 16 16 17 18 18 18 17 15 13 13 13 13 14 14 14 14 14 13 13 13 14 15 16 16 17 17 17 17 18 18 18 18 18 18 19 19 19 19 20 20 20 20 21 21 21
17 17 16 15 15 14 14 14 14 14 14 12 11 10 10 9 9 10 12 13 13 13 13 13 14 14 14 15 17 18 19 20 20 18 16 15 14 14 15 16 17 17 18 18 18 18 16 15 13 12 13 14 14 15 15 15 15 14 14 14 14 15 16 17 17 18 18 18 18 18 18 18 19 19 19 19 19 20 20 20 20 20 21 21 21 21
17 16 15 15 14 14 13 12 12 11 11 11 10 10 10 9 9 9 10 12 13 14 14 15 15 15 15 16 16 17 18 19 19 18 18 17 17 17 18 19 20 20 20 20 19 18 16 14 13 13 14 15 16 16 16 16 16 15 15 16 16 17 18 18 18 18 18 19 18 19 19 19 19 19 19 20 20 20 20 20 20 21 21 21 21 22
16 15 14 15 15 15 14 13 12 12 12 12 12 12 11 10 10 11 11 13 14 14 15 15 16 15 15 14 14 15 16 17 18 18 19 19 19 19 20 21 22 22 22 22 21 19 17 15 15 15 16 16 17 17 17 17 17 17 17 18 18 19 19 19 19 19 19 19 19 19 19 19 19 20 20 20 20 20 20 21 21 21 21 21 21 21
15 14 13 14 15 14 14 13 13 13 14 14 13 13 12 12 12 12 12 12 13 13 14 14 15 15 13 12 12 12 14 15 16 18 19 20 20 20 20 21 23 24 23 23 23 21 18 17 16 17 17 18 18 19 19 18 18 18 19 19 19 19 20 20 20 19 19 19 19 19 19 20 20 20 20 20 20 20 20 20 20 20 21 21 21 21
14 13 13 14 15 15 14 13 13 13 14 14 13 13 13 13 13 12 11 11 11 11 11 12 13 13 12 11 10 10 11 13 15 18 20 21 22 22 21 22 23 24 24 24 23 22 20 18 17 18 18 19 20 20 19 19 19 19 20 20 20 20 20 20 20 20 20 20 20 20 20 20 20 20 20 20 20 20 20 20 20 20 20 20 21 21
15 14 15 15 15 16 15 14 14 14 14 14 14 14 13 13 13 12 11 10 10 9 9 9 9 8 9 12 11 10 11 13 16 19 21 22 23 23 22 22 22 24 24 24 23 22 21 19 19 19 19 20 20 20 20 20 20 20 20 20 20 20 20 20 20 20 20 20 20 20 20 20 20 20 20 20 20 20 20 20 20 20 20 21 21 21
16 16 16 16 16 16 15 14 14 14 14 14 14 14 14 13 13 12 11 10 10 9 9 9 8 8 8 11 11 12 13 15 17 20 21 22 23 23 22 21 22 23 24 24 23 22 20 20 19 20 20 21 21 21 21 21 21 21 21 21 21 20 20 20 20 20 20 20 20 20 20 20 20 20 20 20 20 20 21 21 21 21 21 21 22 22
17 17 17 17 17 16 16 15 15 14 14 13 13 13 13 13 12 12 12 11 11 10 10 10 10 11 12 13 15 16 16 17 18 20 20 21 22 22 21 20 21 22 23 23 23 21 20 20 20 20 21 22 22 23 22 22 22 21 21 21 21 20 20 20 20 20 20 20 20 20 20 20 20 20 20 21 21 21 22 22 22 22 23 23 23 23
18 19 19 18 17 16 16 17 16 15 14 13 13 13 13 13 12 12 12 11 11 12 12 13 13 14 14 16 17 18 17 17 18 18 19 20 21 21 20 19 19 21 22 23 22 21 20 20 21 21 22 23 23 23 23 22 22 21 21 21 20 20 20 20 20 20 20 20 20 20 20 20 20 21 21 22 22 23 23 23 23 23 23 23 23 23
20 21 21 19 17 16 16 16 16 15 13 12 12 13 13 13 12 12 12 13 13 14 14 14 15 16 16 17 18 18 18 17 17 17 18 20 20 19 18 17 18 20 22 22 22 21 20 21 22 22 23 24 24 23 23 22 22 21 21 20 20 19 20 20 20 20 20 20 20 20 20 21 21 22 22 23 24 24 24 24 24 23 23 23 23 23
22 22 22 20 19 18 18 18 17 15 13 13 13 14 13 13 13 14 14 14 15 15 16 16 17 18 19 20 20 20 20 18 17 16 17 18 19 19 16 15 16 18 20 21 21 20 21 22 23 23 24 24 24 23 23 22 21 20 20 19 19 19 19 19 19 19 19 19 20 20 21 22 22 23 24 24 25 25 24 24 23 23 22 22 22 22
23 23 22 21 21 21 20 19 18 17 15 15 16 16 16 16 16 16 17 17 17 17 18 19 20 21 22 22 22 22 20 18 17 16 14 14 17 18 16 15 16 18 19 20 20 21 22 22 23 24 25 25 24 23 22 21 20 19 18 18 18 18 18 18 18 19 19 20 20 21 22 23 24 24 25 25 24 24 23 23 22 22 21 21 21 21
19 20 20 20 19 19 19 19 18 17 17 17 18 18 19 19 19 19 19 19 19 19 20 20 21 21 21 20 19 19 17 16 14 14 13 13 16 17 16 16 16 18 20 20 20 21 22 23 24 25 25 25 24 23 21 19 18 18 17 17 18 18 18 18 19 19 20 21 22 23 24 24 25 24 24 24 24 23 22 22 22 21 21 21 21 21
16 17 17 17 17 17 17 17 17 16 16 17 17 18 18 18 19 19 20 20 20 20 20 19 18 18 17 16 16 16 16 14 13 13 13 13 16 18 17 16 16 18 19 20 20 20 22 24 25 25 25 25 23 21 19 18 17 16 16 17 17 17 18 19 20 21 22 23 24 24 24 24 24 23 23 23 23 23 22 22 22 22 22 22 22 22
19 18 17 17 16 16 16 17 17 17 17 17 18 18 18 18 18 19 19 19 19 18 17 16 15 15 15 14 14 14 14 13 12 13 14 13 15 18 18 16 16 18 19 20 20 20 21 23 24 24 24 23 22 19 17 16 15 15 16 17 18 19 20 22 23 23 24 24 24 23 23 23 23 22 22 23 23 23 22 22 22 22 22 22 23 23
22 22 21 20 20 20 20 20 20 20 20 20 20 19 19 19 19 18 17 17 16 15 14 13 12 13 14 13 13 13 13 12 12 13 14 15 16 17 18 17 16 17 19 20 20 20 20 21 22 23 23 21 19 17 15 15 15 16 18 19 21 23 24 24 24 24 24 23 22 22 22 22 22 22 22 23 23 23 23 23 22 22 23 23 23 22
20 21 21 21 22 22 22 22 22 22 22 22 21 20 20 20 19 17 16 15 13 12 12 11 10 9 10 11 12 13 13 13 13 13 14 14 15 16 17 16 16 16 17 19 20 21 20 20 20 21 20 19 17 15 15 15 17 19 21 23 25 26 26 25 24 23 22 21 21 21 21 21 22 22 23 23 23 23 23 23 23 22 22 22 22 22
15 16 17 18 19 20 20 21 21 21 21 20 20 19 19 19 18 18 16 14 12 11 10 11 10 10 11 13 15 15 15 14 13 13 13 13 14 15 16 15 14 14 15 18 20 21 19 18 17 16 16 16 16 16 18 19 21 23 25 27 27 26 25 24 22 21 20 20 20 20 21 22 22 23 23 23 23 23 23 22 22 22 21 21 21 21
12 13 14 14 15 15 16 16 17 17 17 17 17 17 17 18 19 19 19 17 15 13 13 14 14 14 15 15 14 13 12 13 12 11 11 11 12 13 13 13 13 14 15 15 14 14 16 17 15 13 14 15 18 20 22 24 25 26 26 26 26 25 24 22 21 20 20 20 21 21 22 23 23 23 23 23 23 22 22 21 21 20 20 20 21 21
13 14 14 14 13 13 13 13 13 14 14 14 14 15 15 16 18 19 20 20 19 17 16 17 17 16 15 13 8 6 6 10 9 8 9 9 11 12 13 13 14 15 14 12 8 6 9 14 15 14 14 17 21 23 24 25 24 24 24 24 25 24 23 22 21 20 20 21 22 23 24 24 24 23 22 22 21 21 21 20 20 19 19 20 21 21
15 15 16 15 15 14 14 13 13 13 13 13 13 14 14 15 16 17 18 19 20 20 19 18 17 17 16 13 10 8 9 11 11 10 11 10 12 13 14 14 15 16 15 13 11 8 6 9 15 19 19 20 22 23 24 23 23 22 22 23 23 23 23 22 21 22 23 24 24 24 24 24 23 22 22 21 21 20 20 19 18 18 19 20 20 21
16 16 16 16 16 16 16 16 15 15 15 14 14 14 14 15 16 16 17 17 18 19 20 19 18 17 16 16 15 15 16 15 14 13 14 13 13 14 14 15 15 16 16 16 15 14 11 13 17 21 22 22 22 22 22 22 21 21 21 21 22 22 23 23 23 25 26 27 26 25 24 24 23 22 22 21 21 20 19 19 18 18 18 19 20 20
17 17 17 17 17 17 18 18 17 17 17 17 17 16 16 17 17 17 18 18 19 20 21 21 20 18 17 16 16 16 17 17 16 16 15 15 15 14 15 16 16 16 16 15 15 15 15 17 18 19 21 23 23 22 21 21 20 20 20 20 21 22 23 24 26 27 27 27 26 25 25 24 24 24 23 22 21 20 19 19 19 19 19 19 20 20
17 17 17 17 18 18 19 19 19 19 19 19 19 19 19 19 19 19 20 20 20 21 22 22 22 21 20 18 17 16 17 18 18 17 17 17 17 16 17 16 17 16 15 14 14 13 14 17 18 19 20 22 23 23 21 20 19 19 20 20 21 23 24 26 26 27 26 26 25 25 25 25 25 25 24 23 22 20 20 21 21 21 21 20 20 20
17 17 17 17 17 17 18 18 19 19 19 20 20 20 20 20 21 21 21 21 21 22 22 23 23 23 23 22 21 20 21 22 21 20 19 19 18 18 17 16 17 16 15 14 14 14 14 16 19 20 20 20 20 21 22 21 20 20 21 22 23 24 25 26 26 25 24 24 24 24 25 25 25 25 24 23 21 21 21 22 22 22 21 21 20 19
17 17 16 16 17 17 17 17 18 18 18 19 19 20 20 20 21 21 21 22 22 23 23 23 24 24 24 24 24 25 25 25 24 24 23 22 21 20 19 18 18 18 16 15 15 15 15 16 18 20 20 19 18 19 22 23 23 23 23 23 23 24 25 24 23 22 22 23 23 24 24 24 24 24 24 23 23 23 23 24 23 22 21 21 20 20
15 15 15 15 15 16 16 16 16 16 17 17 17 18 18 19 19 20 20 21 22 23 24 24 25 25 25 26 26 27 27 27 27 27 26 26 25 24 22 22 22 21 20 18 17 16 15 14 13 14 16 19 20 21 23 24 24 24 24 24 24 23 23 22 21 20 21 22 24 24 24 24 24 24 24 25 25 25 25 25 24 23 22 22 22 22
11 12 12 12 12 13 13 13 14 14 13 14 14 15 16 16 17 18 19 20 21 23 24 25 26 26 27 27 27 27 28 28 28 29 29 29 28 27 26 25 24 24 23 21 19 17 16 15 14 13 15 18 21 24 25 24 23 23 24 25 24 23 21 19 19 20 21 22 23 24 23 24 24 24 25 25 25 25 24 24 24 24 23 24 24 24
12 12 12 12 12 11 12 12 13 13 14 14 15 15 15 16 16 18 19 20 21 22 22 23 24 25 26 26 27 27 27 27 28 28 29 29 29 29 28 27 26 25 24 22 19 18 16 16 17 18 19 19 21 23 24 24 23 22 22 22 22 22 21 20 20 21 21 22 22 23 23 24 24 24 24 24 24 24 24 25 25 25 24 24 24 24
17 17 17 17 17 17 17 17 18 18 18 18 17 17 17 17 17 18 19 20 21 21 21 22 23 24 25 25 25 25 25 25 26 27 28 29 29 29 29 28 27 25 23 21 20 18 17 17 18 19 20 21 22 23 24 24 23 22 21 21 22 23 24 22 21 20 20 20 21 22 23 24 24 24 24 24 25 25 25 25 25 25 25 23 22 22
19 19 19 19 19 20 20 20 21 21 20 20 19 18 18 18 19 19 19 19 20 20 21 22 22 23 24 25 25 24 24 23 24 25 27 28 29 29 29 27 26 24 22 21 20 19 19 19 19 19 20 21 21 22 23 24 24 22 20 20 22 24 24 22 20 19 19 20 21 23 23 24 24 25 25 25 25 26 26 25 25 24 23 22 21 21
16 17 17 18 18 18 18 18 18 18 18 17 18 18 19 20 20 20 19 19 19 19 20 21 21 22 22 22 24 25 25 25 25 25 26 26 27 27 27 26 25 23 22 20 20 20 21 20 19 19 20 20 20 21 22 23 24 23 21 21 21 20 19 21 21 20 20 21 22 22 23 23 24 25 26 26 26 26 25 25 24 23 22 21 21 22
14 15 15 15 15 15 14 14 14 14 15 16 17 18 19 20 20 19 19 19 19 20 20 21 22 21 21 21 21 23 24 24 24 24 24 24 25 25 25 25 24 23 22 21 19 19 20 20 20 20 19 19 19 20 21 22 23 23 22 21 20 20 19 21 22 23 22 22 22 22 23 24 25 26 26 26 25 25 24 23 22 22 21 20 20 20
14 14 14 14 13 12 12 12 13 14 15 16 17 18 18 18 18 18 18 19 19 20 21 21 20 18 16 17 18 19 19 20 21 21 22 22 22 23 23 22 22 22 21 21 20 19 19 19 20 20 19 19 19 20 21 21 22 23 22 21 21 20 21 22 23 22 22 22 23 23 24 25 25 25 25 24 24 23 22 22 21 21 21 20 20 21
15 15 15 14 14 14 14 14 14 15 16 17 17 17 17 17 17 18 19 19 19 19 19 19 17 15 14 15 16 16 16 16 17 18 19 19 19 20 20 20 20 20 19 19 20 20 20 20 21 20 20 19 19 20 21 21 21 21 22 22 21 21 21 22 22 21 21 22 23 23 24 24 24 23 23 24 24 24 23 22 22 21 22 22 23 23
14 14 14 14 14 14 14 14 14 14 15 15 15 15 16 16 17 17 18 18 17 17 17 16 16 15 15 16 16 16 16 16 16 16 17 17 17 17 18 18 18 19 19 19 19 20 21 21 21 20 19 18 19 20 21 21 20 20 21 21 21 21 21 21 21 21 21 21 22 23 23 23 22 22 23 24 24 24 24 23 23 23 23 23 24 24
14 14 14 13 13 13 13 13 13 14 13 13 14 15 15 15 15 15 15 15 16 16 15 15 15 15 16 17 18 18 18 17 17 17 17 17 17 17 17 18 18 18 18 19 19 20 20 21 21 20 20 20 19 20 21 21 20 20 20 20 20 20 21 22 22 21 21 21 22 23 23 22 21 22 23 24 24 25 25 25 25 24 23 23 23 23
15 15 14 14 14 14 14 14 14 13 13 14 14 15 15 14 14 13 14 14 15 15 14 14 14 15 15 17 18 18 18 18 18 18 18 17 17 17 17 17 17 17 18 18 19 19 19 20 20 20 20 21 21 21 21 21 21 20 20 20 20 20 21 22 22 21 21 21 22 23 23 22 22 22 22 23 24 25 26 26 26 24 23 22 22 22
17 17 17 17 16 16 16 15 14 14 13 13 13 14 14 14 14 14 14 14 14 15 15 15 15 15 15 16 17 17 17 17 17 17 17 17 17 16 16 16 16 15 16 16 16 16 17 17 17 17 17 19 20 21 21 21 21 21 20 20 20 20 20 21 22 22 22 22 23 23 23 22 22 22 21 22 23 25 26 26 26 24 23 22 21 22
19 19 19 19 19 18 18 17 16 14 14 14 14 14 14 14 14 14 14 15 15 15 16 16 16 16 16 16 17 17 16 16 16 16 17 17 16 15 15 14 14 13 13 13 13 14 13 13 13 14 15 15 16 18 20 20 20 20 20 20 20 20 20 21 22 23 22 22 22 22 21 22 22 21 21 21 22 23 24 25 25 25 24 22 22 23
Wind_Direction
245 251 259 263 267 271 275 278 282 286 291 294 297 298 296 292 287 285 284 283 283 283 283 284 287 289 291 292 291 291 297 308 318 323 323 321 320 319 318 317 316 316 316 317 318 319 320 320 321 321 321 321 320 320 319 318 317 316 314 313 311 310 309 307 306 305 305 304 303 303 302 301 301 300 300 299 298 297 297 296 295 294 294 293 292 292
251 255 260 265 269 272 275 279 284 291 297 303 306 306 302 297 292 287 283 279 277 277 279 282 286 290 292 292 290 290 297 310 320 323 321 319 319 318 317 315 314 315 316 317 318 319 320 320 321 321 321 321 321 320 320 319 317 316 314 313 311 310 309 308 307 306 305 304 304 303 302 301 301 300 300 299 298 298 297 296 295 295 294 294 293 292
256 259 262 267 270 273 275 280 286 294 303 309 311 311 307 302 297 293 287 279 273 272 275 281 287 291 292 290 288 290 298 310 319 321 319 318 317 316 314 314 313 314 316 318 319 319 320 320 320 320 321 321 320 320 319 318 317 315 314 313 311 310 309 308 307 306 306 305 304 303 302 301 300 300 300 299 299 298 297 297 296 296 295 295 294 293
259 260 264 267 270 273 276 281 288 297 307 312 313 310 305 300 296 292 288 282 277 274 276 281 287 290 290 287 286 289 298 310 316 318 317 316 315 314 313 312 313 314 316 318 319 319 320 320 320 320 320 320 319 318 317 316 315 314 313 312 311 310 310 309 308 307 307 306 305 304 303 302 301 301 300 300 299 299 298 297 297 296 296 296 295 294
261 261 264 267 269 273 277 282 289 298 307 312 312 309 302 295 291 288 285 282 280 280 281 283 285 286 285 283 284 289 298 307 313 315 316 316 315 313 312 311 312 314 316 317 318 318 319 320 320 320 319 319 318 317 316 315 315 314 313 312 311 310 310 309 309 308 308 307 306 304 304 303 302 301 301 300 300 299 298 298 297 297 297 297 296 295
262 262 264 266 268 271 276 281 289 298 306 310 311 306 298 290 286 285 285 284 284 285 285 285 284 282 280 281 285 291 299 305 311 314 317 317 315 312 309 308 310 312 315 317 317 317 318 318 319 319 319 318 317 317 316 315 315 314 313 312 311 310 310 309 309 309 308 307 306 305 304 303 303 302 301 300 299 299 298 298 298 298 297 297 296 295
262 262 263 265 268 272 276 281 288 297 305 310 310 305 294 285 282 284 287 290 292 292 291 288 284 281 279 282 288 294 300 305 311 315 318 318 315 310 306 305 307 310 313 315 316 316 316 317 317 317 317 317 316 316 316 316 315 314 313 312 311 310 310 310 309 309 309 308 307 306 305 304 303 301 301 300 299 298 298 297 297 297 297 297 296 295
261 262 262 264 268 273 277 281 287 294 303 308 309 305 299 291 287 287 290 294 297 299 299 296 291 287 286 288 293 297 302 307 312 317 320 319 315 310 306 304 305 307 310 312 313 313 313 314 314 315 315 315 315 316 316 315 314 313 312 310 309 309 310 310 310 310 309 309 307 306 305 304 302 301 300 299 298 297 297 297 296 296 296 296 296 295
260 262 264 265 268 272 277 280 285 291 300 304 304 304 303 302 301 301 300 302 306 308 307 306 303 300 297 297 298 301 304 309 314 319 321 320 316 311 306 305 305 306 307 309 310 310 311 312 312 313 314 315 316 317 317 315 314 312 310 309 309 309 310 311 311 311 310 309 307 306 305 303 302 300 299 298 298 297 296 296 296 295 295 295 295 294
260 263 266 268 270 273 278 281 286 291 297 299 297 295 297 302 306 309 310 313 315 316 314 312 309 306 303 302 302 304 308 311 315 319 320 318 314 309 306 304 304 305 306 307 307 309 310 311 311 312 314 317 320 321 320 318 316 314 312 312 312 313 313 313 312 311 310 308 307 306 304 303 301 301 299 299 297 297 296 295 295 295 294 294 294 293
262 264 268 271 274 276 278 282 287 291 295 296 293 288 287 294 302 307 308 311 314 316 315 311 307 304 303 303 305 307 310 313 316 317 318 316 313 309 307 305 305 305 305 306 307 309 310 311 311 312 316 320 323 325 324 322 320 319 317 317 316 316 314 313 311 310 309 308 307 305 304 303 302 301 300 299 298 297 296 295 295 294 294 293 293 292
261 265 269 272 275 277 277 280 284 288 292 292 290 289 289 292 299 302 301 303 306 309 309 306 303 301 301 303 306 309 312 315 317 318 318 317 316 315 313 311 309 308 308 308 310 311 313 313 312 314 318 323 326 327 327 325 324 323 322 321 319 316 313 311 310 309 308 307 307 305 304 304 303 302 301 300 299 298 297 295 295 294 293 293 292 292
258 262 266 269 271 272 273 276 279 282 282 280 279 281 287 293 296 295 293 294 298 301 303 302 300 300 301 304 307 311 314 316 317 318 318 319 319 319 317 315 313 312 312 312 313 315 317 316 315 316 320 324 327 328 327 327 326 326 324 321 316 313 310 309 308 308 307 307 306 306 305 304 303 302 301 301 299 298 297 296 295 294 293 293 292 291
257 260 263 266 267 268 269 271 272 273 272 273 275 279 284 287 287 286 285 287 292 298 301 300 300 301 303 306 309 313 317 318 318 318 317 317 317 317 316 314 312 312 312 312 313 315 319 318 317 318 321 324 326 327 327 327 326 324 319 315 312 309 308 307 307 307 307 306 306 305 305 304 303 303 302 301 300 299 298 297 296 294 293 292 291 291
254 257 260 262 263 265 266 267 268 269 272 276 280 282 283 281 280 280 280 284 290 297 300 301 302 303 304 307 313 318 320 320 318 316 315 314 314 314 313 311 310 309 309 308 310 313 317 317 316 318 321 323 325 326 326 325 322 317 313 311 309 308 307 307 307 306 306 306 305 305 305 304 304 303 303 302 301 300 299 298 297 295 294 293 292 291
250 252 254 258 261 264 264 265 266 269 273 277 279 279 276 275 275 276 277 282 289 295 299 303 307 308 307 310 316 321 322 320 317 314 312 310 309 310 310 309 307 305 305 305 306 309 314 315 315 317 319 321 323 323 322 319 315 313 311 310 309 308 307 307 306 306 305 305 305 305 304 304 304 303 303 303 302 301 300 299 298 297 295 294 292 291
249 249 251 256 261 264 266 266 266 268 271 275 276 275 273 272 273 274 275 279 285 291 296 302 307 309 308 311 313 317 320 319 315 312 309 307 306 307 308 307 304 302 301 301 303 306 311 313 314 315 317 319 320 319 317 314 313 312 311 309 308 308 307 307 306 306 306 306 305 305 305 305 304 304 304 303 303 302 301 300 299 298 296 295 294 293
248 248 250 254 259 264 267 266 266 267 270 271 272 273 273 272 271 271 272 274 279 284 289 294 294 294 297 302 303 306 312 313 311 309 306 303 303 305 306 304 301 299 298 298 301 305 309 310 312 313 314 316 315 314 313 313 312 312 310 309 308 308 307 307 306 306 306 306 306 305 305 305 305 304 304 303 303 302 301 301 300 298 296 295 294 293
248 249 249 252 257 262 265 264 263 264 265 266 268 269 267 267 268 269 271 273 276 280 284 287 287 286 286 287 292 298 304 306 306 305 302 300 300 302 304 302 298 295 295 296 300 305 308 309 310 310 311 312 313 312 312 313 312 310 309 308 308 308 307 307 307 307 307 306 306 306 305 305 305 304 303 303 303 302 301 300 299 297 296 294 293 291
249 250 249 251 256 261 263 262 261 262 264 267 267 265 263 264 267 269 271 275 278 280 281 281 279 280 282 284 289 294 299 302 302 301 299 297 297 298 300 298 295 293 293 295 300 305 307 307 307 308 309 310 311 311 311 311 310 310 310 309 308 308 308 308 308 307 307 307 306 306 305 305 304 303 303 303 302 302 301 300 299 297 296 294 293 291
249 251 252 252 254 257 261 263 265 267 269 269 266 263 262 266 268 270 272 275 277 278 278 276 275 277 281 284 286 290 293 296 297 297 297 295 294 294 296 295 293 292 292 294 299 303 305 305 305 306 307 308 309 309 309 310 310 309 309 309 309 309 308 308 308 308 307 307 306 306 305 305 304 304 303 303 302 302 301 300 299 298 297 295 293 292
247 251 255 255 254 255 259 264 269 271 272 268 262 259 262 266 269 271 273 274 274 274 274 274 276 280 282 282 284 286 290 290 290 291 294 293 291 291 294 294 292 291 290 293 297 301 302 303 303 305 306 307 307 308 309 309 309 309 309 309 309 309 308 308 308 308 307 307 306 306 305 305 304 304 304 303 303 302 302 300 299 298 297 296 294 293
250 253 256 257 257 258 261 265 268 269 268 264 261 260 263 265 267 270 273 273 273 273 275 278 282 284 283 282 283 286 287 288 288 288 288 286 288 291 294 295 292 289 288 291 296 299 301 302 302 304 305 306 307 308 308 309 309 309 308 308 308 308 308 308 308 308 307 307 306 306 305 305 305 304 304 304 304 303 303 302 300 299 298 297 296 294
254 257 258 258 258 259 261 262 264 264 264 262 262 264 266 267 268 270 272 274 274 275 278 281 282 281 281 281 281 283 284 285 285 283 278 278 283 288 292 293 291 289 288 291 296 299 301 302 303 304 305 307 308 308 308 308 308 308 308 307 308 308 308 309 308 307 307 306 306 305 305 305 305 305 305 305 305 304 304 302 301 300 299 298 297 296
259 261 262 261 261 261 262 262 263 263 263 264 266 268 270 272 273 275 276 276 275 275 276 277 276 275 277 279 279 279 281 281 279 275 269 275 282 286 289 291 290 289 290 293 297 300 302 302 303 304 305 306 308 309 309 308 307 307 305 305 306 307 308 308 307 306 306 305 305 305 305 305 305 305 305 305 305 305 304 303 301 300 299 298 297 296
257 261 264 265 266 266 266 266 266 266 267 268 269 272 274 276 277 276 273 271 269 269 268 269 270 273 276 278 277 277 279 277 273 267 265 272 281 285 287 289 289 289 290 294 298 301 302 302 303 303 304 306 308 310 309 307 305 302 301 301 303 305 306 306 306 306 305 305 305 305 305 306 306 306 306 306 305 305 304 303 302 300 300 299 297 295
254 258 261 263 264 264 264 265 266 266 267 268 269 271 274 277 277 273 268 267 267 264 259 262 268 274 278 278 277 277 278 276 271 266 266 270 276 281 284 287 288 290 292 295 299 301 302 301 300 301 303 306 309 309 306 302 298 296 296 299 302 304 304 305 305 305 305 305 306 306 306 306 306 306 306 306 306 305 304 303 302 301 300 299 297 295
253 255 258 260 262 262 263 263 264 265 266 267 268 269 271 274 275 273 271 274 274 269 258 259 266 276 281 281 281 283 282 277 271 269 269 268 270 275 281 286 289 291 296 299 302 303 301 298 298 301 303 306 307 304 299 295 293 294 296 300 302 304 305 306 306 306 306 306 306 306 306 306 306 306 306 306 306 305 305 304 303 303 301 300 298 296
256 256 257 259 260 262 262 263 264 265 265 266 267 267 267 269 270 272 275 279 282 282 274 271 274 281 285 288 289 288 284 279 274 272 271 266 266 271 279 285 289 294 301 305 306 305 302 299 299 301 303 304 302 298 295 294 295 297 300 303 306 307 308 309 309 308 307 306 306 306 306 306 306 306 306 306 306 306 305 305 305 305 304 301 300 298
265 264 263 263 263 263 263 263 264 264 264 264 264 263 261 261 262 265 269 273 279 282 282 281 281 283 286 290 292 289 284 281 278 274 269 263 265 272 281 286 289 295 303 308 310 307 303 302 301 301 301 300 298 297 296 297 299 301 304 307 309 311 311 310 309 308 306 306 305 306 306 307 307 307 307 307 307 307 307 307 307 306 305 304 302 301
269 270 270 271 272 272 270 269 268 267 265 263 261 259 258 257 257 259 261 265 269 272 274 276 277 279 281 284 287 286 283 284 283 278 272 266 268 275 283 287 289 292 296 301 305 308 306 305 304 303 302 300 299 299 299 301 302 304 306 308 309 310 310 310 308 307 306 306 306 307 307 308 308 309 309 309 309 309 308 309 309 308 306 305 304 303
268 269 270 273 275 275 274 273 272 271 269 266 263 261 260 260 260 260 260 261 263 265 266 267 269 271 272 270 268 268 274 281 283 281 278 275 275 278 282 285 287 289 290 288 285 285 295 301 303 303 302 301 300 300 300 302 303 303 305 306 307 307 308 308 307 306 306 307 308 308 309 310 311 312 313 312 311 311 310 310 309 308 307 306 305 303
265 266 268 270 270 270 270 270 270 270 269 268 267 266 265 265 265 264 264 263 263 262 261 260 262 264 266 265 264 265 269 272 274 275 274 274 275 279 281 282 283 284 285 283 279 276 277 286 296 301 302 301 300 299 300 300 301 302 304 304 305 305 306 306 305 306 307 308 309 310 312 313 315 316 316 315 314 313 312 310 309 308 307 306 305 303
259 261 262 263 264 264 266 267 268 268 268 268 268 268 268 267 267 267 266 266 265 263 260 257 256 257 259 261 262 264 266 266 268 270 270 269 269 274 278 278 278 280 281 281 280 279 278 283 291 298 301 302 300 299 299 300 301 302 303 303 303 303 304 305 306 307 308 310 311 312 314 316 317 317 317 316 315 313 311 309 307 306 305 304 303 303
254 255 256 256 257 258 260 262 263 264 265 265 266 268 269 268 268 268 268 267 267 265 263 260 257 255 254 255 259 262 264 267 271 275 273 268 267 270 274 273 274 275 276 277 280 282 284 288 292 297 300 302 301 300 299 300 302 303 303 302 301 301 302 304 306 308 310 311 311 312 314 315 316 315 315 314 312 310 308 306 305 305 304 302 301 300
249 250 251 251 252 253 254 256 258 259 261 263 266 268 269 269 269 270 270 270 269 267 265 263 261 259 256 255 255 259 263 270 276 279 276 271 268 267 267 268 270 271 272 275 279 283 288 291 294 297 298 299 300 301 301 303 304 304 303 302 302 302 303 305 307 309 311 311 310 310 311 312 312 312 312 310 308 306 305 304 304 304 303 301 299 297
246 248 248 249 250 251 253 255 256 257 259 262 266 269 270 271 272 273 274 274 273 271 268 266 264 262 260 259 259 261 266 273 277 277 274 271 268 264 263 265 268 270 270 273 279 285 289 293 297 298 297 296 296 299 302 304 305 304 303 303 303 303 304 306 309 310 310 309 308 308 308 309 309 309 308 307 306 305 305 305 304 304 303 301 299 297
244 246 248 249 251 252 254 256 257 259 262 265 268 271 274 275 277 278 279 279 278 276 273 270 268 267 265 264 263 265 268 272 274 274 272 269 267 264 263 265 268 269 269 271 277 284 290 293 296 298 298 296 294 295 299 303 305 304 304 304 304 304 304 306 308 309 308 306 306 306 306 306 306 307 307 306 306 306 306 306 306 306 305 304 302 299
248 250 252 253 255 256 257 260 264 268 272 276 279 281 282 282 283 283 283 283 283 281 279 276 274 273 272 271 270 269 270 271 272 272 271 269 268 267 267 267 267 269 270 272 276 281 285 288 290 293 296 297 297 297 298 300 301 302 304 306 305 304 303 306 307 306 305 304 304 304 305 306 306 306 306 306 306 306 305 305 305 306 306 305 304 303
264 263 263 264 265 266 268 271 276 280 283 286 287 287 285 284 283 283 284 285 286 286 286 284 282 280 279 278 276 275 275 275 275 274 272 271 270 269 268 267 267 268 271 274 277 280 282 283 284 286 288 291 294 296 297 297 298 300 304 305 304 303 304 305 305 304 303 304 304 304 305 305 305 305 304 304 304 303 302 302 303 303 303 303 301 301
265 265 265 266 267 268 270 273 277 279 279 280 281 280 279 279 278 279 279 281 281 282 283 283 282 281 280 279 279 280 280 280 278 277 274 272 271 270 268 267 267 269 273 277 280 281 281 282 283 284 285 287 289 291 292 292 294 296 298 298 297 298 301 302 302 303 304 304 304 304 304 304 304 303 302 302 302 301 301 301 301 301 300 299 297 296
258 260 262 264 265 267 269 271 272 272 271 271 272 273 274 274 274 274 273 272 273 274 277 278 277 277 276 278 279 281 281 281 279 276 274 272 270 268 267 267 269 272 277 281 282 282 281 281 281 281 283 286 288 289 289 289 291 292 292 291 294 297 300 300 301 302 304 303 303 303 303 302 302 301 302 301 301 301 301 300 299 298 297 295 294 292
256 259 263 265 268 269 270 270 269 269 270 271 272 273 273 273 272 271 270 270 271 273 275 276 275 273 271 272 275 277 278 278 277 274 272 270 269 268 269 270 273 277 281 282 282 282 282 281 279 279 281 283 284 284 285 287 289 290 289 288 292 295 298 299 301 303 303 302 302 302 301 301 301 301 301 300 300 300 300 299 297 296 294 293 292 291
263 266 269 270 272 273 273 273 274 276 277 277 276 275 275 275 274 273 272 273 274 276 277 276 273 270 265 265 267 269 271 273 273 271 270 270 270 270 271 274 276 279 280 280 279 280 282 282 281 280 281 281 280 279 280 283 285 287 287 288 288 288 288 292 297 301 301 300 300 300 300 301 301 301 301 300 300 299 299 298 298 296 295 293 292 290
273 274 275 275 275 276 277 279 281 282 281 278 275 273 275 277 277 276 274 274 274 274 274 272 269 266 263 263 264 266 268 270 270 270 270 271 271 272 273 275 276 277 278 277 277 278 280 281 282 284 284 281 277 276 277 279 282 284 286 287 287 286 285 288 293 296 297 298 298 298 300 301 302 302 301 300 300 299 298 298 297 296 295 294 292 290
270 271 272 273 275 276 278 280 280 279 277 273 272 273 275 277 278 276 273 272 271 270 270 269 267 265 265 268 269 270 271 271 270 270 270 270 271 272 273 274 276 276 277 278 279 281 281 280 281 283 284 281 277 273 273 275 278 281 284 286 288 288 288 289 290 292 294 295 296 298 300 302 301 300 299 299 299 299 298 297 296 296 295 294 292 291
264 265 267 269 271 273 276 278 278 276 273 271 272 274 276 277 276 274 272 272 272 273 275 274 272 269 267 269 271 272 272 272 271 271 271 270 271 272 273 275 276 277 279 281 284 286 286 284 281 278 276 276 276 275 275 275 276 278 282 285 287 288 288 289 290 292 293 293 294 297 300 301 300 299 299 299 299 299 298 297 296 295 294 293 292 291
261 261 262 265 267 270 272 273 273 273 274 276 278 279 280 280 280 278 278 280 281 281 281 280 276 273 271 271 271 271 272 272 273 273 273 273 274 275 276 277 278 280 282 285 288 290 289 287 282 275 269 267 269 273 275 275 276 277 279 283 285 286 287 288 290 292 293 293 294 296 298 298 298 298 300 300 299 298 298 297 296 295 294 293 292 291
262 261 262 263 263 264 264 265 267 269 272 275 278 279 280 280 280 280 280 281 281 280 277 276 274 274 273 273 273 273 272 272 273 273 274 275 277 278 279 279 281 284 287 290 293 293 292 288 282 274 266 260 261 265 271 274 275 277 278 280 281 283 285 288 290 292 294 294 295 296 297 296 295 296 298 298 297 297 297 297 296 296 295 293 292 291
260 260 261 261 260 259 259 261 264 267 270 274 277 278 279 279 278 276 276 275 274 272 270 270 271 271 272 274 274 274 273 272 272 272 274 276 277 279 279 280 283 287 291 294 296 296 294 291 286 279 269 260 257 259 264 269 274 277 278 279 279 281 283 286 289 292 294 295 296 296 296 295 295 296 295 295 295 295 295 296 295 296 295 295 294 292
256 257 258 258 258 258 259 261 264 267 270 273 275 276 277 276 275 274 272 271 268 266 266 267 267 268 269 272 274 274 273 271 271 271 273 276 277 277 276 277 281 286 291 294 297 298 297 296 292 288 280 267 257 255 260 266 272 276 278 279 281 282 284 286 289 291 293 294 295 295 296 296 296 296 295 293 293 294 294 295 295 295 296 297 295 294